Date String (YYYY-MM-DD hh:mm:ss) UTC,Instrument flags,Ambient pressure (hPa),Sample flow (lpm),Bypass flow (lpm),Sample temperature (°C),Ambient temperature (°C),ASC tube jacket temperature (°C),LED temperature (°C),Box temperature (°C),Sample RH (%),Span deviation,Mass concentration (μg/m³),Mass concentration (μg/m³),Mass concentration (μg/m³)
DateTimeUTC,F1_M11,P_M11,Q1_M11,Q2_M11,T1_M11,T2_M11,T3_M11,T4_M11,T5_M11,U1_M11,ZSPAN_M11,X0_M11,X2_M11,X1_M11
2021-10-30 00:00:00,,0825.1,4.99,0.00,30.1,28.1,00.0,39.0,31.8,07.2,0000.0,0005.19,0000.48,0000.27
2021-10-30 00:01:00,,0825.2,5.00,0.00,30.0,26.5,00.0,38.9,31.5,07.2,0000.0,0004.12,0000.45,0000.26
2021-10-30 00:02:00,,0825.1,5.00,0.00,29.9,26.5,00.0,38.9,31.4,07.2,0000.0,0003.24,0000.42,0000.25
2021-10-30 00:03:00,,0825.1,5.00,0.00,29.8,26.9,00.0,38.9,31.4,07.3,0000.0,0003.09,0000.38,0000.23
2021-10-30 00:04:00,,0825.2,4.98,0.00,29.8,27.3,00.0,38.8,31.4,07.3,0000.0,0002.50,0000.35,0000.22
2021-10-30 00:05:00,,0825.1,5.00,0.00,29.8,27.6,00.0,38.8,31.5,07.3,0000.0,0002.04,0000.33,0000.21
2021-10-30 00:06:00,,0825.1,5.01,0.00,29.8,27.9,00.0,38.8,31.6,07.3,0000.0,0002.51,0000.34,0000.21
2021-10-30 00:07:00,,0825.1,5.00,0.00,29.8,28.2,00.0,38.8,31.6,07.3,0000.0,0002.53,0000.32,0000.21
2021-10-30 00:08:00,,0825.2,5.00,0.00,29.8,28.3,00.0,38.8,31.7,07.3,0000.0,0001.31,0000.28,0000.20
2021-10-30 00:09:00,,0825.2,5.01,0.00,29.9,28.5,00.0,38.8,31.7,07.3,0000.0,0001.05,0000.28,0000.20
2021-10-30 00:10:00,,0825.1,5.00,0.00,29.9,28.6,00.0,38.8,31.8,07.3,0000.0,0001.15,0000.29,0000.21
2021-10-30 00:11:00,,0825.1,5.00,0.00,29.9,28.8,00.0,38.8,31.8,07.4,0000.0,0001.17,0000.29,0000.21
2021-10-30 00:12:00,,0825.2,5.00,0.00,29.9,28.9,00.0,38.8,31.8,07.4,0000.0,0001.18,0000.30,0000.22
2021-10-30 00:13:00,,0825.1,4.99,0.00,30.0,29.0,00.0,38.9,31.8,07.4,0000.0,0001.17,0000.30,0000.22
2021-10-30 00:14:00,,0825.1,5.00,0.00,30.0,29.0,00.0,38.9,31.9,07.3,0000.0,0001.17,0000.30,0000.23
2021-10-30 00:15:00,,0825.1,5.00,0.00,30.0,29.1,00.0,38.9,31.9,07.4,0000.0,0001.15,0000.31,0000.23
2021-10-30 00:16:00,,0825.1,5.00,0.00,30.1,29.1,00.0,38.9,32.0,07.4,0000.0,0001.21,0000.33,0000.25
2021-10-30 00:17:00,,0825.1,5.00,0.00,30.1,29.2,00.0,38.9,32.0,07.4,0000.0,0000.84,0000.36,0000.27
2021-10-30 00:18:00,,0825.1,5.00,0.00,30.1,29.3,00.0,39.0,32.0,07.4,0000.0,0000.79,0000.37,0000.29
2021-10-30 00:19:00,,0825.1,5.00,0.00,30.2,28.5,00.0,39.0,31.9,07.4,0000.0,0000.88,0000.42,0000.30
2021-10-30 00:20:00,,0825.1,4.99,0.00,30.0,26.2,00.0,39.0,31.4,07.4,0000.0,0001.52,0000.44,0000.31
2021-10-30 00:21:00,,0825.1,4.99,0.00,29.9,25.3,00.0,38.9,31.1,07.4,0000.0,0001.99,0000.47,0000.33
2021-10-30 00:22:00,,0825.1,5.01,0.00,29.8,25.6,00.0,38.9,31.1,07.4,0000.0,0001.97,0000.49,0000.34
2021-10-30 00:23:00,,0825.1,5.00,0.00,29.6,26.2,00.0,38.8,31.1,07.4,0000.0,0002.45,0000.51,0000.35
2021-10-30 00:24:00,,0825.1,5.01,0.00,29.6,26.7,00.0,38.7,31.2,07.5,0000.0,0002.98,0000.51,0000.36
2021-10-30 00:25:00,,0825.2,4.99,0.00,29.6,27.1,00.0,38.7,31.3,07.5,0000.0,0002.97,0000.51,0000.35
2021-10-30 00:26:00,,0825.2,5.00,0.00,29.6,27.4,00.0,38.7,31.3,07.5,0000.0,0002.93,0000.51,0000.36
2021-10-30 00:27:00,,0825.2,5.00,0.00,29.6,27.7,00.0,38.7,31.4,07.5,0000.0,0002.88,0000.51,0000.35
2021-10-30 00:28:00,,0825.2,5.00,0.00,29.6,27.9,00.0,38.6,31.4,07.5,0000.0,0002.81,0000.49,0000.34
2021-10-30 00:29:00,,0825.2,5.00,0.00,29.6,28.1,00.0,38.6,31.4,07.5,0000.0,0002.77,0000.48,0000.34
2021-10-30 00:30:00,,0825.2,5.01,0.00,29.7,28.3,00.0,38.6,31.5,07.5,0000.0,0002.71,0000.45,0000.32
2021-10-30 00:31:00,,0825.2,4.99,0.00,29.7,28.4,00.0,38.7,31.5,07.6,0000.0,0002.19,0000.45,0000.31
2021-10-30 00:32:00,,0825.2,5.00,0.00,29.7,28.5,00.0,38.7,31.5,07.6,0000.0,0001.86,0000.47,0000.30
2021-10-30 00:33:00,,0825.2,4.99,0.00,29.7,28.6,00.0,38.7,31.6,07.6,0000.0,0001.88,0000.45,0000.29
2021-10-30 00:34:00,,0825.2,5.00,0.00,29.8,28.7,00.0,38.7,31.6,07.6,0000.0,0001.41,0000.45,0000.28
2021-10-30 00:35:00,,0825.2,5.00,0.00,29.8,28.7,00.0,38.7,31.6,07.6,0000.0,0000.91,0000.45,0000.29
2021-10-30 00:36:00,,0825.3,5.02,0.00,29.8,28.8,00.0,38.7,31.7,07.5,0000.0,0000.94,0000.47,0000.31
2021-10-30 00:37:00,,0825.2,5.01,0.00,29.8,28.8,00.0,38.7,31.7,07.5,0000.0,0000.94,0000.48,0000.32
2021-10-30 00:38:00,,0825.2,5.00,0.00,29.9,28.9,00.0,38.8,31.7,07.4,0000.0,0000.94,0000.48,0000.33
2021-10-30 00:39:00,,0825.2,5.00,0.00,29.9,28.9,00.0,38.8,31.8,07.5,0000.0,0000.92,0000.48,0000.34
2021-10-30 00:40:00,,0825.2,5.02,0.00,29.9,29.0,00.0,38.8,31.7,07.5,0000.0,0000.94,0000.51,0000.38
2021-10-30 00:41:00,,0825.2,5.00,0.00,29.9,29.0,00.0,38.8,31.8,07.4,0000.0,0000.97,0000.54,0000.42
2021-10-30 00:42:00,,0825.2,4.99,0.00,30.0,29.1,00.0,38.8,31.8,07.4,0000.0,0000.83,0000.53,0000.44
2021-10-30 00:43:00,,0825.2,4.99,0.00,30.0,29.1,00.0,38.9,31.8,07.4,0000.0,0000.67,0000.49,0000.45
2021-10-30 00:44:00,,0825.2,5.01,0.00,30.0,29.1,00.0,38.9,31.9,07.4,0000.0,0000.66,0000.49,0000.45
2021-10-30 00:45:00,,0825.2,4.99,0.00,30.0,29.2,00.0,38.9,31.9,07.4,0000.0,0000.64,0000.49,0000.45
2021-10-30 00:46:00,,0825.2,5.00,0.00,30.1,29.2,00.0,38.9,31.9,07.5,0000.0,0000.66,0000.49,0000.44
2021-10-30 00:47:00,,0825.2,5.01,0.00,30.1,29.2,00.0,38.9,31.9,07.5,0000.0,0000.66,0000.48,0000.43
2021-10-30 00:48:00,,0825.2,5.01,0.00,30.1,29.3,00.0,39.0,31.9,07.4,0000.0,0000.65,0000.47,0000.41
2021-10-30 00:49:00,,0825.2,4.99,0.00,30.1,29.3,00.0,39.0,32.0,07.4,0000.0,0000.74,0000.47,0000.40
2021-10-30 00:50:00,,0825.2,5.01,0.00,30.1,29.3,00.0,39.0,32.0,07.4,0000.0,0001.03,0000.47,0000.37
2021-10-30 00:51:00,,0825.2,5.00,0.00,30.2,29.3,00.0,39.0,32.0,07.4,0000.0,0001.03,0000.45,0000.33
2021-10-30 00:52:00,,0825.2,4.99,0.00,30.2,28.6,00.0,39.0,31.8,07.4,0000.0,0001.05,0000.43,0000.29
2021-10-30 00:53:00,,0825.2,5.01,0.00,30.0,26.6,00.0,39.0,31.4,07.3,0000.0,0001.06,0000.43,0000.27
2021-10-30 00:54:00,,0825.2,4.99,0.00,29.9,26.2,00.0,39.0,31.3,07.3,0000.0,0001.20,0000.42,0000.27
2021-10-30 00:55:00,,0825.2,5.00,0.00,29.8,26.5,00.0,38.9,31.3,07.4,0000.0,0001.30,0000.43,0000.26
2021-10-30 00:56:00,,0825.2,5.01,0.00,29.8,27.0,00.0,38.9,31.3,07.5,0000.0,0001.32,0000.43,0000.26
2021-10-30 00:57:00,,0825.2,4.99,0.00,29.8,27.4,00.0,38.9,31.4,07.6,0000.0,0001.31,0000.43,0000.25
2021-10-30 00:58:00,,0825.2,4.99,0.00,29.8,27.7,00.0,38.8,31.4,07.6,0000.0,0001.31,0000.43,0000.26
2021-10-30 00:59:00,,0825.2,5.00,0.00,29.8,27.9,00.0,38.8,31.5,07.5,0000.0,0002.60,0000.45,0000.26
